OM6ACB-6 Weather Reports


time (UTC)temp
C
wind
direction
speed
KPH
gust
KPH
rain 1hr
cm
rain 24hr
cm
rain mn
cm
humidity
%
barometer
mb
20260905210626 14 222 0.0 1.6 0.00 0.00 0.00 25 1023.6
20260905205625 15 95 1.6 6.4 0.00 0.00 0.00 25 1023.7
20260905204625 14 146 1.6 4.8 0.00 0.00 0.00 25 1023.6
20260905203625 15 194 1.6 4.8 0.00 0.00 0.00 25 1023.6
20260905202625 14 139 0.0 4.8 0.00 0.00 0.00 25 1023.6
20260905201624 14 154 0.0 3.2 0.00 0.00 0.00 25 1023.5
20260905200624 13 135 0.0 0.0 0.00 0.00 0.00 26 1023.3
20260905195624 13 0 0.0 0.0 0.00 0.00 0.00 26 1023.3
20260905194623 13 0 0.0 0.0 0.00 0.00 0.00 26 1023.3
20260905193623 14 0 0.0 0.0 0.00 0.00 0.00 25 1023.2
20260905192623 14 0 0.0 0.0 0.00 0.00 0.00 25 1023.1
20260905191622 13 0 0.0 0.0 0.00 0.00 0.00 26 1023.0
20260905190622 13 0 0.0 0.0 0.00 0.00 0.00 26 1022.8
20260905185622 13 0 0.0 0.0 0.00 0.00 0.00 26 1022.7
20260905184622 13 0 0.0 0.0 0.00 0.00 0.00 26 1022.7
20260905183621 13 0 0.0 0.0 0.00 0.00 0.00 26 1022.7
20260905182621 13 0 0.0 0.0 0.00 0.00 0.00 25 1022.6
20260905181621 14 1 0.0 1.6 0.00 0.00 0.00 25 1022.5
20260905180620 15 135 0.0 1.6 0.00 0.00 0.00 25 1022.5
20260905175620 15 0 0.0 0.0 0.00 0.00 0.00 25 1022.5
20260905174620 15 0 0.0 0.0 0.00 0.00 0.00 25 1022.4
20260905173620 16 197 0.0 6.4 0.00 0.00 0.00 24 1022.3
20260905172619 16 0 0.0 0.0 0.00 0.00 0.00 24 1022.3
20260905171619 18 151 1.6 4.8 0.00 0.00 0.00 23 1022.4
20260905170619 19 175 1.6 6.4 0.00 0.00 0.00 23 1022.5
20260905165618 19 171 3.2 12.9 0.00 0.00 0.00 23 1022.3
20260905164618 19 128 1.6 4.8 0.00 0.00 0.00 23 1022.0
20260905163618 20 210 4.8 12.9 0.00 0.00 0.00 22 1022.2
20260905162618 20 145 1.6 6.4 0.00 0.00 0.00 22 1022.0
20260905161617 21 106 3.2 6.4 0.00 0.00 0.00 22 1022.2
20260905160617 23 83 4.8 14.5 0.00 0.00 0.00 21 1022.3
20260905155617 24 76 1.6 3.2 0.00 0.00 0.00 20 1022.5
20260905154616 23 163 3.2 8.0 0.00 0.00 0.00 21 1022.5
20260905153616 25 152 3.2 6.4 0.00 0.00 0.00 20 1022.6
20260905152616 25 236 1.6 6.4 0.00 0.00 0.00 20 1022.8
20260905151616 25 181 3.2 6.4 0.00 0.00 0.00 20 1022.8
20260905150615 24 229 3.2 6.4 0.00 0.00 0.00 20 1022.7
20260905145615 24 194 3.2 8.0 0.00 0.00 0.00 20 1022.8
20260905144615 24 184 4.8 9.7 0.00 0.00 0.00 20 1022.7
20260905143614 25 145 1.6 6.4 0.00 0.00 0.00 20 1022.9
20260905142614 25 202 4.8 9.7 0.00 0.00 0.00 20 1022.8
20260905141614 23 121 4.8 9.7 0.00 0.00 0.00 21 1022.6
20260905140613 23 87 4.8 12.9 0.00 0.00 0.00 21 1022.7
20260905135613 21 237 3.2 9.7 0.00 0.00 0.00 22 1022.5
20260905134613 23 192 4.8 12.9 0.00 0.00 0.00 21 1022.8
20260905133613 21 228 6.4 12.9 0.00 0.00 0.00 22 1022.4
20260905132615 21 223 6.4 12.9 0.00 0.00 0.00 22 1022.4
20260905131612 21 185 6.4 12.9 0.00 0.00 0.00 22 1022.3
20260905130612 22 66 4.8 11.3 0.00 0.00 0.00 21 1022.6
20260905125611 21 214 6.4 9.7 0.00 0.00 0.00 22 1022.5
20260905124611 23 125 6.4 12.9 0.00 0.00 0.00 21 1022.7
20260905123611 23 103 6.4 20.9 0.00 0.00 0.00 21 1022.6
20260905122610 22 237 4.8 9.7 0.00 0.00 0.00 21 1022.5
20260905121610 24 205 3.2 6.4 0.00 0.00 0.00 20 1022.8
20260905120610 25 159 3.2 8.0 0.00 0.00 0.00 20 1022.9
20260905115610 23 157 6.4 12.9 0.00 0.00 0.00 21 1022.5
20260905114609 22 138 6.4 9.7 0.00 0.00 0.00 21 1022.7
20260905113609 23 173 6.4 12.9 0.00 0.00 0.00 21 1022.7
20260905112609 22 192 8.0 16.1 0.00 0.00 0.00 22 1022.5
20260905111608 22 209 8.0 17.7 0.00 0.00 0.00 21 1022.7
20260905110608 22 121 6.4 16.1 0.00 0.00 0.00 21 1022.8
20260905105608 22 313 3.2 8.0 0.00 0.00 0.00 21 1022.7
20260905104608 22 356 4.8 9.7 0.00 0.00 0.00 21 1022.7
20260905103607 23 317 3.2 8.0 0.00 0.00 0.00 21 1022.8
20260905102607 21 347 3.2 6.4 0.00 0.00 0.00 22 1022.8
20260905101607 21 331 1.6 4.8 0.00 0.00 0.00 22 1022.8
20260905100606 19 292 1.6 4.8 0.00 0.00 0.00 23 1022.6
20260905095606 18 18 0.0 4.8 0.00 0.00 0.00 23 1022.8
20260905094606 18 93 3.2 6.4 0.00 0.00 0.00 23 1022.7
20260905093606 17 97 4.8 14.5 0.00 0.00 0.00 24 1022.7
20260905092605 18 90 1.6 6.4 0.00 0.00 0.00 23 1022.7
20260905091605 18 242 0.0 3.2 0.00 0.00 0.00 23 1022.6
20260905090605 18 114 0.0 4.8 0.00 0.00 0.00 23 1022.2
20260905085604 17 150 0.0 4.8 0.00 0.00 0.00 24 1021.7
20260905084604 17 1 0.0 1.6 0.00 0.00 0.00 24 1021.6
20260905083604 16 0 0.0 0.0 0.00 0.00 0.00 24 1021.8
20260905082603 16 356 0.0 3.2 0.00 0.00 0.00 24 1022.1
20260905081603 16 317 0.0 4.8 0.00 0.00 0.00 24 1022.0
20260905080603 17 6 0.0 1.6 0.00 0.00 0.00 24 1022.4
20260905075603 17 86 0.0 4.8 0.00 0.00 0.00 24 1022.0
20260905074602 17 237 1.6 3.2 0.00 0.00 0.00 24 1021.5
20260905073602 17 181 0.0 0.0 0.00 0.00 0.00 24 1021.7
20260905072602 17 225 0.0 1.6 0.00 0.00 0.00 24 1021.5
20260905071601 18 204 3.2 6.4 0.00 0.00 0.00 23 1021.3
20260905070601 18 219 3.2 8.0 0.00 0.00 0.00 23 1021.4
20260905065601 18 221 6.4 12.9 0.00 0.00 0.00 23 1021.0
20260905064601 18 235 3.2 6.4 0.00 0.00 0.00 23 1021.4
20260905063600 17 311 1.6 6.4 0.00 0.00 0.00 24 1021.5
20260905062600 18 275 3.2 6.4 0.00 0.00 0.00 23 1021.3
20260905061600 17 326 0.0 3.2 0.00 0.00 0.00 24 1021.0
20260905060559 17 194 0.0 1.6 0.00 0.00 0.00 24 1020.9
20260905055559 17 225 0.0 1.6 0.00 0.00 0.00 24 1020.6
20260905054559 17 314 0.0 3.2 0.00 0.00 0.00 24 1020.6
20260905053559 17 308 1.6 6.4 0.00 0.00 0.00 24 1020.5
20260905052558 17 248 0.0 8.0 0.00 0.00 0.00 24 1020.1
20260905051558 17 304 0.0 1.6 0.00 0.00 0.00 24 1019.9
20260905050558 17 265 0.0 4.8 0.00 0.00 0.00 24 1020.0
20260905045557 18 205 3.2 8.0 0.00 0.00 0.00 23 1019.5
20260905044557 18 185 4.8 8.0 0.00 0.00 0.00 23 1019.2
20260905043557 18 238 3.2 6.4 0.00 0.00 0.00 23 1018.9
20260905042556 18 214 4.8 8.0 0.00 0.00 0.00 23 1018.7
20260905041556 18 230 8.0 16.1 0.00 0.00 0.00 23 1018.4
20260905040556 17 270 6.4 12.9 0.00 0.00 0.00 24 1018.1
20260905035556 17 266 3.2 8.0 0.00 0.13 0.13 24 1017.9
20260905034555 17 224 9.7 17.7 0.00 0.13 0.13 24 1017.9
20260905033555 17 227 6.4 9.7 0.00 0.13 0.13 24 1018.0
20260905032555 17 226 9.7 12.9 0.10 0.13 0.13 24 1018.1
20260905031555 17 226 9.7 12.9 0.10 0.13 0.13 24 1018.1
20260905030554 17 211 4.8 8.0 0.13 0.13 0.13 24 1018.1
20260905025554 17 249 4.8 9.7 0.13 0.13 0.13 24 1018.1
20260905024554 17 285 4.8 9.7 0.13 0.13 0.13 24 1017.9
20260905023553 17 290 1.6 6.4 0.13 0.13 0.13 24 1017.7
20260905022553 17 270 4.8 8.0 0.03 0.03 0.03 24 1017.7
20260905021553 20 242 3.2 6.4 0.03 0.03 0.03 23 1017.7
20260905020552 20 283 1.6 4.8 0.00 0.00 0.00 23 1017.4
20260905015552 19 61 1.6 4.8 0.00 0.00 0.00 23 1017.0
20260905014552 20 181 1.6 3.2 0.00 0.00 0.00 23 1017.0
20260905013551 20 117 1.6 4.8 0.00 0.00 0.00 23 1016.8
20260905012551 19 163 1.6 4.8 0.00 0.00 0.00 23 1016.9
20260905011551 -18 127 1.6 6.4 0.00 0.00 0.00 12 1010.1
20260905010551 19 122 0.0 6.4 0.00 0.00 0.00 23 1016.8
20260905005550 19 122 0.0 4.8 0.00 0.00 0.00 23 1016.8
20260905004550 19 63 3.2 4.8 0.00 0.00 0.00 23 1016.8
20260905003550 19 127 1.6 4.8 0.00 0.00 0.00 23 1016.8
20260905002549 18 63 0.0 4.8 0.00 0.00 0.00 23 1016.7
20260905001549 18 64 0.0 1.6 0.00 0.00 0.00 23 1016.7
20260905000549 18 88 0.0 1.6 0.00 0.00 0.00 23 1016.7
20260904235549 18 92 0.0 3.2 0.00 0.00 0.00 23 1016.6
20260904234548 18 59 0.0 3.2 0.00 0.00 0.00 23 1016.7
20260904233548 18 129 0.0 4.8 0.00 0.00 0.00 23 1016.7
20260904232548 17 122 1.6 3.2 0.00 0.00 0.00 24 1016.8
20260904231547 17 131 0.0 1.6 0.00 0.00 0.00 24 1016.8
20260904230547 17 90 0.0 1.6 0.00 0.00 0.00 24 1016.9
20260904225547 18 67 0.0 0.0 0.00 0.00 0.00 23 1016.9
20260904224546 18 108 0.0 3.2 0.00 0.00 0.00 23 1016.8
20260904223546 17 181 0.0 0.0 0.00 0.00 0.00 24 1016.8
20260904222546 18 28 0.0 3.2 0.00 0.00 0.00 23 1016.9
20260904221546 18 90 0.0 3.2 0.00 0.00 0.00 23 1016.8
20260904220545 17 90 0.0 1.6 0.00 0.00 0.00 24 1010.4
20260904215545 17 0 0.0 0.0 0.00 0.00 0.00 24 1016.9
20260904214545 16 0 0.0 0.0 0.00 0.00 0.00 24 1016.9
20260904213544 16 135 0.0 0.0 0.00 0.00 0.00 24 1017.1
20260904212544 16 0 0.0 0.0 0.00 0.00 0.00 24 1017.2
20260904211544 18 0 0.0 0.0 0.00 0.00 0.00 23 1017.5